User: anonymous   Login
Location: Unspecified
(0.0000°N, 0.0000°E)
Time: 19:33:43
(UTC+00:00)
Language:

ROBUSTA 1B - Orbit

View from above orbital plane
View from above orbital plane
View from above satellite
View from above satellite

Ground track
Ground track

The orbit data is extracted from the following two-line orbital elements,

1 42792U 17036AD  19340.65415895  .00000937  00000-0  42333-4 0  9999
2 42792  97.3309  35.1136 0010701 357.9644   2.1548 15.23337429136316
Epoch (UTC): 06 December 2019 15:41:59
Eccentricity: 0.0010701
inclination: 97.3309°
perigee height: 488 km
apogee height: 503 km
right ascension of ascending node: 35.1136°
argument of perigee: 357.9644°
revolutions per day: 15.23337429
mean anomaly at epoch: 2.1548°
orbit number at epoch: 13631

The dashed part of the orbit path shows where the satellite is in the earth's shadow,  

DLR